Date String (YYYY-MM-DD hh:mm:ss) UTC,Instrument flags,Ambient pressure (hPa),Sample flow (lpm),Bypass flow (lpm),Sample temperature (°C),Ambient temperature (°C),ASC tube jacket temperature (°C),LED temperature (°C),Box temperature (°C),Sample RH (%),Span deviation,Mass concentration (μg/m³),Mass concentration (μg/m³),Mass concentration (μg/m³)
DateTimeUTC,F1_M11,P_M11,Q1_M11,Q2_M11,T1_M11,T2_M11,T3_M11,T4_M11,T5_M11,U1_M11,ZSPAN_M11,X0_M11,X2_M11,X1_M11
2022-09-17 17:00:00,,0825.2,5.00,0.00,30.4,29.1,00.0,39.1,32.2,18.4,0000.0,0008.12,0003.59,0003.31
2022-09-17 17:01:00,,0825.2,5.01,0.00,30.4,29.2,00.0,39.1,32.2,18.7,0000.0,0007.87,0003.55,0003.30
2022-09-17 17:02:00,,0825.2,4.99,0.00,30.4,28.6,00.0,39.1,32.2,19.1,0000.0,0007.74,0003.56,0003.29
2022-09-17 17:03:00,,0825.2,5.01,0.00,30.4,27.2,00.0,39.1,32.1,18.7,0000.0,0008.10,0003.57,0003.28
2022-09-17 17:04:00,,0825.2,5.00,0.00,30.3,26.7,00.0,39.0,32.0,18.4,0000.0,0008.10,0003.57,0003.28
2022-09-17 17:05:00,,0825.2,5.00,0.00,30.3,26.9,00.0,39.0,31.9,18.7,0000.0,0008.18,0003.58,0003.28
2022-09-17 17:06:00,,0825.2,5.00,0.00,30.2,27.2,00.0,38.9,31.8,18.9,0000.0,0007.61,0003.58,0003.27
2022-09-17 17:07:00,,0825.2,5.00,0.00,30.1,27.6,00.0,38.9,31.8,19.0,0000.0,0006.65,0003.57,0003.27
2022-09-17 17:08:00,,0825.2,5.00,0.00,30.1,27.8,00.0,38.9,31.8,19.1,0000.0,0006.66,0003.56,0003.27
2022-09-17 17:09:00,,0825.2,4.98,0.00,30.1,28.1,00.0,38.9,31.7,19.2,0000.0,0006.89,0003.60,0003.27
2022-09-17 17:10:00,,0825.2,5.00,0.00,30.1,28.2,00.0,38.9,31.8,19.2,0000.0,0007.21,0003.62,0003.27
2022-09-17 17:11:00,,0825.1,5.00,0.00,30.1,28.4,00.0,38.8,31.8,19.3,0000.0,0007.54,0003.63,0003.27
2022-09-17 17:12:00,,0825.1,5.00,0.00,30.1,28.5,00.0,38.8,31.9,19.4,0000.0,0007.45,0003.65,0003.27
2022-09-17 17:13:00,,0825.1,5.00,0.00,30.1,28.6,00.0,38.8,31.9,19.6,0000.0,0007.24,0003.63,0003.26
2022-09-17 17:14:00,,0825.1,4.99,0.00,30.1,28.7,00.0,38.8,31.9,19.7,0000.0,0006.90,0003.62,0003.25
2022-09-17 17:15:00,,0825.1,5.02,0.00,30.1,28.8,00.0,38.8,32.0,19.7,0000.0,0007.32,0003.63,0003.24
2022-09-17 17:16:00,,0825.1,4.99,0.00,30.1,28.9,00.0,38.9,32.0,19.1,0000.0,0007.89,0003.65,0003.24
2022-09-17 17:17:00,,0825.1,5.01,0.00,30.2,28.9,00.0,38.9,32.0,18.9,0000.0,0008.04,0003.64,0003.24
2022-09-17 17:18:00,,0825.1,5.00,0.00,30.2,29.0,00.0,38.9,32.0,18.7,0000.0,0008.02,0003.64,0003.25
2022-09-17 17:19:00,,0825.1,4.98,0.00,30.2,29.0,00.0,38.9,32.1,18.7,0000.0,0008.44,0003.64,0003.24
2022-09-17 17:20:00,,0825.1,5.00,0.00,30.2,29.1,00.0,38.9,32.1,18.7,0000.0,0008.40,0003.62,0003.25
2022-09-17 17:21:00,,0825.2,5.01,0.00,30.3,29.1,00.0,38.9,32.1,18.6,0000.0,0008.27,0003.61,0003.26
2022-09-17 17:22:00,,0825.1,5.01,0.00,30.3,29.1,00.0,39.0,32.1,18.3,0000.0,0007.99,0003.60,0003.26
2022-09-17 17:23:00,,0825.1,5.00,0.00,30.3,29.2,00.0,39.0,32.2,18.6,0000.0,0008.00,0003.60,0003.28
2022-09-17 17:24:00,,0825.2,5.01,0.00,30.4,29.0,00.0,39.0,32.2,18.4,0000.0,0008.18,0003.62,0003.29
2022-09-17 17:25:00,,0825.1,4.99,0.00,30.4,27.6,00.0,39.0,32.1,18.4,0000.0,0008.21,0003.65,0003.30
2022-09-17 17:26:00,,0825.1,5.00,0.00,30.3,26.6,00.0,38.9,32.0,18.6,0000.0,0007.90,0003.66,0003.32
2022-09-17 17:27:00,,0825.0,5.00,0.00,30.2,26.6,00.0,38.9,31.9,18.8,0000.0,0007.28,0003.64,0003.32
2022-09-17 17:28:00,,0825.0,5.00,0.00,30.1,26.9,00.0,38.8,31.7,18.9,0000.0,0006.86,0003.66,0003.33
2022-09-17 17:29:00,,0825.1,5.01,0.00,30.1,27.3,00.0,38.8,31.7,19.4,0000.0,0007.01,0003.68,0003.35
2022-09-17 17:30:00,,0825.0,5.01,0.00,30.0,27.7,00.0,38.8,31.7,19.1,0000.0,0006.35,0003.66,0003.34
2022-09-17 17:31:00,,0825.0,5.00,0.00,30.0,27.9,00.0,38.8,31.7,19.2,0000.0,0006.10,0003.66,0003.34
2022-09-17 17:32:00,,0825.0,5.00,0.00,30.0,28.1,00.0,38.8,31.8,19.4,0000.0,0006.13,0003.66,0003.33
2022-09-17 17:33:00,,0824.9,5.01,0.00,30.0,28.3,00.0,38.8,31.8,19.9,0000.0,0006.12,0003.66,0003.33
2022-09-17 17:34:00,,0824.9,4.98,0.00,30.0,28.4,00.0,38.8,31.8,19.7,0000.0,0006.26,0003.66,0003.33
2022-09-17 17:35:00,,0824.9,5.01,0.00,30.0,28.6,00.0,38.8,31.9,19.5,0000.0,0006.30,0003.65,0003.32
2022-09-17 17:36:00,,0825.0,4.98,0.00,30.1,28.7,00.0,38.8,31.9,19.9,0000.0,0006.14,0003.63,0003.33
2022-09-17 17:37:00,,0825.0,5.01,0.00,30.1,28.8,00.0,38.8,31.9,19.7,0000.0,0007.55,0003.60,0003.32
2022-09-17 17:38:00,,0825.0,4.99,0.00,30.1,28.8,00.0,38.8,32.0,19.3,0000.0,0007.54,0003.60,0003.33
2022-09-17 17:39:00,,0825.0,5.00,0.00,30.1,28.9,00.0,38.8,32.0,19.0,0000.0,0007.97,0003.61,0003.34
2022-09-17 17:40:00,,0825.0,5.00,0.00,30.1,28.9,00.0,38.8,32.0,19.2,0000.0,0008.22,0003.61,0003.34
2022-09-17 17:41:00,,0824.9,5.00,0.00,30.2,29.0,00.0,38.8,32.0,19.2,0000.0,0008.85,0003.66,0003.36
2022-09-17 17:42:00,,0824.9,5.00,0.00,30.2,29.0,00.0,38.9,32.1,18.7,0000.0,0008.94,0003.70,0003.38
2022-09-17 17:43:00,,0824.9,4.99,0.00,30.2,29.1,00.0,38.9,32.1,18.8,0000.0,0008.93,0003.72,0003.41
2022-09-17 17:44:00,,0824.9,5.01,0.00,30.3,29.1,00.0,38.9,32.1,18.9,0000.0,0009.09,0003.77,0003.43
2022-09-17 17:45:00,,0824.9,5.00,0.00,30.3,29.2,00.0,38.9,32.1,18.9,0000.0,0009.14,0003.83,0003.45
2022-09-17 17:46:00,,0824.9,4.99,0.00,30.3,28.8,00.0,38.9,32.2,19.2,0000.0,0009.10,0003.87,0003.47
2022-09-17 17:47:00,,0824.9,5.00,0.00,30.3,27.5,00.0,38.9,32.1,19.0,0000.0,0009.21,0003.91,0003.49
2022-09-17 17:48:00,,0824.9,5.00,0.00,30.3,27.3,00.0,38.9,32.1,18.9,0000.0,0008.39,0003.92,0003.51
2022-09-17 17:49:00,,0824.9,5.02,0.00,30.2,27.4,00.0,38.9,31.9,19.4,0000.0,0008.77,0003.93,0003.51
2022-09-17 17:50:00,,0824.9,5.00,0.00,30.2,27.7,00.0,38.8,31.9,18.8,0000.0,0008.36,0003.92,0003.50
2022-09-17 17:51:00,,0824.9,5.01,0.00,30.1,28.0,00.0,38.8,31.9,18.9,0000.0,0008.08,0003.91,0003.51
2022-09-17 17:52:00,,0824.9,5.00,0.00,30.1,28.2,00.0,38.8,31.9,19.1,0000.0,0008.13,0003.91,0003.51
2022-09-17 17:53:00,,0824.9,5.00,0.00,30.1,28.4,00.0,38.8,31.9,19.0,0000.0,0008.24,0003.89,0003.50
2022-09-17 17:54:00,,0824.8,4.99,0.00,30.1,28.6,00.0,38.8,31.9,19.8,0000.0,0008.18,0003.88,0003.49
2022-09-17 17:55:00,,0824.9,5.00,0.00,30.2,28.7,00.0,38.9,32.0,19.9,0000.0,0008.07,0003.86,0003.49
2022-09-17 17:56:00,,0824.9,5.00,0.00,30.2,28.8,00.0,38.9,32.0,19.6,0000.0,0008.00,0003.84,0003.48
2022-09-17 17:57:00,,0824.9,4.99,0.00,30.2,28.9,00.0,38.9,32.0,19.2,0000.0,0008.04,0003.84,0003.48
2022-09-17 17:58:00,,0824.9,5.00,0.00,30.2,29.0,00.0,38.9,32.1,19.0,0000.0,0008.44,0003.89,0003.47
2022-09-17 17:59:00,,0824.8,5.01,0.00,30.2,29.0,00.0,38.9,32.1,18.8,0000.0,0008.44,0003.92,0003.47
